When you browse on this site, cookies collect data to enhance your experience and personalize the content and advertising you see.
Visit our Privacy Policy to learn more. By continuing to use the site, you agree to this use of cookies and data.
  • In Romania
  • List of Countries
  • For 7 days
  • Water Temperature
  • Weather Map
  • Weather Widgets
  • user-avatar
    Login

    Hourly Weather Kalgoorlie

    Today, 18 November, Monday

    Time Temperature Precipitation Wind Pressure Humidity
    00:00 +26°C° 0 mm 7 mps 729 mmHg 38%
    01:00 +24°C° 0 mm 7 mps 729 mmHg 44%
    02:00 +22°C° 0 mm 7 mps 728 mmHg 49%
    03:00 +22°C° 0 mm 6 mps 729 mmHg 53%
    04:00 +21°C° 0 mm 5 mps 729 mmHg 57%
    05:00 +20°C° 0 mm 5 mps 730 mmHg 62%
    06:00 +22°C° 0 mm 5 mps 730 mmHg 54%
    07:00 +26°C° 0 mm 6 mps 730 mmHg 46%
    08:00 +29°C° 0 mm 5 mps 730 mmHg 35%
    09:00 +33°C° 0 mm 4 mps 729 mmHg 29%
    10:00 +35°C° 0 mm 4 mps 729 mmHg 24%
    11:00 +38°C° 0 mm 3 mps 729 mmHg 19%
    12:00 +39°C° 0 mm 3 mps 728 mmHg 16%
    13:00 +42°C° 0 mm 3 mps 727 mmHg 14%
    14:00 +42°C° 0 mm 2 mps 726 mmHg 12%
    15:00 +43°C° 0 mm 2 mps 726 mmHg 11%
    16:00 +43°C° 0 mm 2 mps 726 mmHg 10%
    17:00 +43°C° 0 mm 2 mps 726 mmHg 10%
    18:00 +40°C° 0 mm 3 mps 726 mmHg 13%
    19:00 +36°C° 0 mm 4 mps 726 mmHg 17%
    20:00 +33°C° 0 mm 5 mps 726 mmHg 20%
    21:00 +30°C° 0 mm 7 mps 727 mmHg 30%
    22:00 +27°C° 0 mm 9 mps 727 mmHg 40%
    23:00 +23°C° 0 mm 11 mps 727 mmHg 49%

    Tomorrow, 19 November, Tuesday

    Time Temperature Precipitation Wind Pressure Humidity
    00:00 +22°C° 0 mm 10 mps 727 mmHg 52%
    01:00 +21°C° 0 mm 9 mps 726 mmHg 54%
    02:00 +18°C° 0 mm 8 mps 725 mmHg 56%
    03:00 +18°C° 0 mm 7 mps 725 mmHg 60%
    04:00 +19°C° 0 mm 6 mps 725 mmHg 64%
    05:00 +17°C° 0 mm 5 mps 725 mmHg 68%
    06:00 +21°C° 0 mm 6 mps 725 mmHg 59%
    07:00 +24°C° 0 mm 7 mps 724 mmHg 50%
    08:00 +27°C° 0 mm 7 mps 724 mmHg 41%
    09:00 +34°C° 0 mm 8 mps 724 mmHg 31%
    10:00 +40°C° 0 mm 9 mps 723 mmHg 20%
    11:00 +47°C° 0 mm 9 mps 723 mmHg 9%
    12:00 +48°C° 0 mm 10 mps 722 mmHg 8%
    13:00 +48°C° 0 mm 10 mps 721 mmHg 7%
    14:00 +49°C° 0 mm 10 mps 720 mmHg 6%
    15:00 +45°C° 0 mm 10 mps 720 mmHg 9%
    16:00 +42°C° 0 mm 10 mps 720 mmHg 12%
    17:00 +39°C° 0 mm 9 mps 720 mmHg 15%
    18:00 +38°C° 0 mm 8 mps 720 mmHg 16%
    19:00 +35°C° 0 mm 7 mps 721 mmHg 17%
    20:00 +34°C° 0 mm 6 mps 721 mmHg 18%
    21:00 +30°C° 0 mm 6 mps 721 mmHg 28%
    22:00 +27°C° 0 mm 7 mps 722 mmHg 39%
    23:00 +23°C° 0 mm 7 mps 722 mmHg 49%

    Day after tomorrow, 20 November, Wednesday

    Time Temperature Precipitation Wind Pressure Humidity
    00:00 +22°C° 0 mm 7 mps 721 mmHg 53%
    01:00 +21°C° 0 mm 6 mps 721 mmHg 58%
    02:00 +20°C° 0 mm 6 mps 721 mmHg 62%
    03:00 +19°C° 0 mm 6 mps 721 mmHg 68%
    04:00 +16°C° 0 mm 6 mps 722 mmHg 75%
    05:00 +15°C° 0 mm 6 mps 722 mmHg 81%
    06:00 +17°C° 0 mm 6 mps 723 mmHg 72%
    07:00 +19°C° 0 mm 6 mps 724 mmHg 63%
    08:00 +21°C° 0 mm 7 mps 725 mmHg 54%
    09:00 +23°C° 0 mm 7 mps 725 mmHg 45%
    10:00 +24°C° 0 mm 8 mps 726 mmHg 37%
    11:00 +26°C° 0 mm 8 mps 726 mmHg 28%
    12:00 +27°C° 0 mm 9 mps 725 mmHg 25%
    13:00 +27°C° 0 mm 10 mps 725 mmHg 22%
    14:00 +28°C° 0 mm 10 mps 725 mmHg 20%
    15:00 +27°C° 0 mm 10 mps 726 mmHg 19%
    16:00 +27°C° 0 mm 10 mps 726 mmHg 18%
    17:00 +26°C° 0 mm 10 mps 727 mmHg 17%
    18:00 +23°C° 0 mm 9 mps 727 mmHg 22%
    19:00 +20°C° 0 mm 8 mps 728 mmHg 26%
    20:00 +17°C° 0 mm 8 mps 729 mmHg 30%
    21:00 +15°C° 0 mm 8 mps 730 mmHg 36%
    22:00 +14°C° 0 mm 7 mps 730 mmHg 41%
    23:00 +11°C° 0 mm 7 mps 731 mmHg 46%

    21 November, Thursday

    Time Temperature Precipitation Wind Pressure Humidity
    00:00 +10°C° 0 mm 6 mps 731 mmHg 51%
    01:00 +9°C° 0 mm 6 mps 730 mmHg 56%
    02:00 +8°C° 0 mm 5 mps 730 mmHg 61%
    03:00 +8°C° 0 mm 4 mps 731 mmHg 65%
    04:00 +8°C° 0 mm 3 mps 731 mmHg 69%
    05:00 +7°C° 0 mm 3 mps 731 mmHg 73%
    06:00 +10°C° 0 mm 3 mps 732 mmHg 62%
    07:00 +12°C° 0 mm 3 mps 732 mmHg 50%
    08:00 +15°C° 0 mm 4 mps 732 mmHg 39%
    09:00 +18°C° 0 mm 3 mps 732 mmHg 31%
    10:00 +20°C° 0 mm 3 mps 732 mmHg 24%
    11:00 +23°C° 0 mm 2 mps 732 mmHg 17%
    12:00 +25°C° 0 mm 2 mps 731 mmHg 15%
    13:00 +26°C° 0 mm 1 mps 730 mmHg 13%
    14:00 +27°C° 0 mm 1 mps 730 mmHg 11%
    15:00 +28°C° 0 mm 1 mps 729 mmHg 11%
    16:00 +28°C° 0 mm 1 mps 729 mmHg 11%
    17:00 +28°C° 0 mm 1 mps 729 mmHg 10%
    18:00 +26°C° 0 mm 2 mps 729 mmHg 12%
    19:00 +23°C° 0 mm 2 mps 730 mmHg 14%
    20:00 +20°C° 0 mm 2 mps 730 mmHg 17%
    21:00 +19°C° 0 mm 2 mps 730 mmHg 17%
    22:00 +19°C° 0 mm 3 mps 730 mmHg 18%
    23:00 +19°C° 0 mm 3 mps 730 mmHg 18%

    22 November, Friday

    Time Temperature Precipitation Wind Pressure Humidity
    00:00 +18°C° 0 mm 3 mps 730 mmHg 19%
    01:00 +17°C° 0 mm 3 mps 729 mmHg 20%
    02:00 +17°C° 0 mm 3 mps 729 mmHg 21%
    03:00 +16°C° 0 mm 3 mps 729 mmHg 24%
    04:00 +14°C° 0 mm 3 mps 729 mmHg 26%
    05:00 +14°C° 0 mm 3 mps 729 mmHg 28%
    06:00 +18°C° 0 mm 3 mps 730 mmHg 26%
    07:00 +21°C° 0 mm 4 mps 730 mmHg 24%
    08:00 +25°C° 0 mm 4 mps 731 mmHg 21%
    09:00 +27°C° 0 mm 3 mps 731 mmHg 18%
    10:00 +30°C° 0 mm 3 mps 731 mmHg 15%
    11:00 +32°C° 0 mm 2 mps 730 mmHg 11%
    12:00 +34°C° 0 mm 2 mps 730 mmHg 11%
    13:00 +33°C° 0 mm 1 mps 729 mmHg 10%
    14:00 +34°C° 0 mm 1 mps 728 mmHg 9%
    15:00 +35°C° 0 mm 2 mps 728 mmHg 9%
    16:00 +35°C° 0 mm 3 mps 728 mmHg 10%
    17:00 +35°C° 0 mm 4 mps 727 mmHg 10%
    18:00 +33°C° 0 mm 5 mps 728 mmHg 11%
    19:00 +32°C° 0 mm 5 mps 728 mmHg 12%
    20:00 +29°C° 0 mm 6 mps 728 mmHg 12%
    21:00 +27°C° 0 mm 7 mps 728 mmHg 19%
    22:00 +24°C° 0 mm 8 mps 729 mmHg 26%
    23:00 +22°C° 0 mm 10 mps 729 mmHg 33%

    23 November, Saturday

    Time Temperature Precipitation Wind Pressure Humidity
    00:00 +22°C° 0 mm 9 mps 729 mmHg 36%
    01:00 +21°C° 0 mm 9 mps 728 mmHg 39%
    02:00 +19°C° 0 mm 9 mps 728 mmHg 42%
    03:00 +18°C° 0 mm 8 mps 728 mmHg 43%
    04:00 +18°C° 0 mm 7 mps 728 mmHg 44%
    05:00 +19°C° 0 mm 6 mps 728 mmHg 45%
    06:00 +21°C° 0 mm 7 mps 729 mmHg 37%
    07:00 +23°C° 0 mm 8 mps 729 mmHg 30%
    08:00 +26°C° 0 mm 8 mps 729 mmHg 22%
    09:00 +29°C° 0 mm 8 mps 729 mmHg 19%
    10:00 +32°C° 0 mm 9 mps 728 mmHg 17%
    11:00 +35°C° 0 mm 9 mps 728 mmHg 14%
    12:00 +37°C° 0 mm 9 mps 727 mmHg 14%
    13:00 +37°C° 0 mm 9 mps 726 mmHg 14%
    14:00 +38°C° 0 mm 9 mps 726 mmHg 14%
    15:00 +36°C° 0 mm 10 mps 725 mmHg 18%
    16:00 +34°C° 0 mm 12 mps 725 mmHg 21%
    17:00 +32°C° 0 mm 13 mps 724 mmHg 25%
    18:00 +31°C° 0 mm 12 mps 725 mmHg 26%
    19:00 +29°C° 0 mm 11 mps 725 mmHg 28%
    20:00 +28°C° 0 mm 11 mps 726 mmHg 29%
    21:00 +27°C° 0 mm 9 mps 726 mmHg 29%
    22:00 +27°C° 0 mm 8 mps 726 mmHg 29%
    23:00 +26°C° 0 mm 7 mps 726 mmHg 29%
    Show more